EW4536 Weather Reports


Display with metric or nautical units.
time (UTC)temp
F
wind
direction
speed
MPH
gust
MPH
rain 1hr
in
rain 24hr
in
rain mn
in
humidity
%
barometer
mb
20260904101550 75 78 0.0 0.0 0.00 0.02 0.00 96 1014.3
20260904100007 75 78 0.0 0.0 0.00 0.02 0.00 96 1014.2
20260904094602 76 78 0.0 0.0 0.00 0.02 0.00 96 1014.1
20260904093014 76 78 0.0 0.0 0.00 0.02 0.00 95 1014.0
20260904091604 76 78 0.0 0.0 0.00 0.02 0.00 95 1014.1
20260904090014 76 78 0.0 0.0 0.00 0.02 0.00 96 1014.1
20260904084556 75 78 0.0 0.0 0.00 0.02 0.00 95 1014.0
20260904083035 75 78 0.0 0.0 0.00 0.02 0.00 95 1014.1
20260904081606 76 78 0.0 0.0 0.00 0.02 0.00 95 1014.1
20260904080032 76 78 0.0 0.0 0.00 0.02 0.00 95 1014.0
20260904074613 75 78 0.0 0.0 0.00 0.02 0.00 95 1013.7
20260904073039 76 78 0.0 0.0 0.00 0.02 0.00 95 1013.6
20260904071501 76 78 0.0 0.0 0.00 0.02 0.00 95 1013.6
20260904070036 76 78 0.0 0.0 0.00 0.02 0.00 95 1013.7
20260904064611 76 78 0.0 0.0 0.00 0.02 0.00 94 1013.9
20260904063034 76 78 0.0 0.0 0.00 0.02 0.00 94 1014.1
20260904061503 76 78 0.0 0.0 0.00 0.02 0.00 94 1014.2
20260904060057 76 78 0.0 2.0 0.00 0.02 0.00 94 1014.3
20260904054502 76 78 0.0 0.0 0.00 0.02 0.00 95 1014.5
20260904053043 76 78 0.0 0.0 0.00 0.02 0.00 94 1014.6
20260904051506 76 78 0.0 0.0 0.00 0.02 0.00 94 1014.8
20260904050044 76 78 0.0 1.0 0.00 0.02 0.00 94 1014.8
20260904044514 76 78 0.0 2.0 0.00 0.02 0.00 93 1014.8
20260904043049 76 78 0.0 0.0 0.00 0.02 0.00 93 1014.8
20260904041508 76 78 0.0 2.0 0.00 0.02 0.00 93 1014.9
20260904040042 77 78 0.0 2.0 0.00 0.02 0.00 93 1014.9
20260904034512 77 78 0.0 0.0 0.00 0.02 0.02 93 1014.9
20260904033053 77 78 0.0 0.0 0.00 0.02 0.02 92 1014.8
20260904031531 77 78 0.0 0.0 0.00 0.02 0.02 92 1014.7
20260904030103 77 78 0.0 2.0 0.00 0.02 0.02 91 1014.7
20260904024542 78 78 0.0 1.0 0.00 0.02 0.02 90 1014.7
20260904023109 78 78 0.0 2.0 0.00 0.02 0.02 89 1014.6
20260904021533 79 78 0.0 2.0 0.00 0.02 0.02 88 1014.5
20260904020106 79 78 0.0 2.0 0.00 0.02 0.02 88 1014.4
20260904014611 79 101 1.0 3.0 0.00 0.02 0.02 87 1014.2
20260904013122 80 103 0.0 2.0 0.00 0.02 0.02 86 1014.2
20260904011538 80 102 1.0 3.0 0.00 0.02 0.02 85 1014.4
20260904010011 81 101 2.0 6.0 0.00 0.02 0.02 84 1014.3
20260904004551 81 105 3.0 6.0 0.00 0.02 0.02 83 1014.1
20260904003023 81 108 2.0 6.0 0.00 0.02 0.02 83 1014.0
20260904001603 82 117 2.0 3.0 0.00 0.02 0.02 83 1013.9
20260904000016 82 105 0.0 2.0 0.00 0.02 0.02 83 1013.8
20260903234554 83 104 0.0 0.0 0.00 0.02 0.02 81 1013.7
20260903233029 84 104 1.0 4.0 0.00 0.02 0.02 80 1013.6
20260903231541 84 68 0.0 3.0 0.00 0.02 0.02 78 1013.4
20260903230113 85 80 2.0 6.0 0.00 0.02 0.02 77 1013.1
20260903224537 86 109 2.0 7.0 0.00 0.03 0.02 76 1012.9
20260903223012 86 90 2.0 8.0 0.00 0.03 0.02 75 1013.0
20260903221551 86 109 3.0 9.0 0.00 0.03 0.02 74 1012.9
20260903220015 86 56 1.0 6.0 0.00 0.03 0.02 76 1013.0
20260903214551 87 98 2.0 5.0 0.00 0.03 0.02 75 1013.1
20260903213003 88 96 3.0 7.0 0.00 0.03 0.02 73 1013.0
20260903211601 88 90 1.0 6.0 0.00 0.03 0.02 74 1013.0
20260903210013 87 92 1.0 6.0 0.00 0.03 0.02 73 1013.0
20260903204548 85 95 3.0 7.0 0.00 0.03 0.02 77 1013.3
20260903203010 86 59 1.0 8.0 0.00 0.03 0.02 76 1013.5
20260903201539 87 112 2.0 5.0 0.00 0.03 0.02 74 1013.8
20260903200109 87 77 0.0 5.0 0.00 0.03 0.02 76 1013.8
20260903194541 86 57 1.0 5.0 0.00 0.03 0.02 75 1013.9
20260903193004 85 106 4.0 12.0 0.00 0.03 0.02 78 1014.2
20260903191540 85 107 2.0 11.0 0.01 0.03 0.02 79 1014.2
20260903190010 84 102 3.0 7.0 0.01 0.03 0.02 81 1014.3
20260903184557 83 86 2.0 7.0 0.01 0.03 0.02 86 1014.5
20260903183009 81 117 2.0 6.0 0.01 0.03 0.02 88 1014.8
20260903181544 81 107 2.0 6.0 0.00 0.02 0.01 91 1014.9
20260903180111 81 119 2.0 6.0 0.00 0.02 0.01 90 1015.0
20260903174539 80 107 0.0 6.0 0.00 0.02 0.01 91 1015.0
20260903173005 79 122 0.0 4.0 0.00 0.02 0.01 91 1015.1
20260903171559 80 115 2.0 7.0 0.00 0.02 0.01 88 1015.4
20260903170008 82 131 2.0 9.0 0.00 0.02 0.01 83 1015.5
20260903164600 85 105 0.0 0.0 0.00 0.02 0.01 80 1015.6
20260903163023 86 97 3.0 9.0 0.00 0.02 0.01 78 1015.7
20260903161556 86 107 2.0 5.0 0.00 0.02 0.01 80 1015.7
20260903160024 83 71 1.0 6.0 0.00 0.02 0.01 82 1016.0
20260903154603 83 59 1.0 4.0 0.01 0.02 0.01 83 1015.9
20260903153024 85 65 3.0 10.0 0.01 0.02 0.01 78 1015.9
20260903151556 86 115 3.0 11.0 0.01 0.02 0.01 77 1015.6
20260903150029 85 83 2.0 12.0 0.01 0.02 0.01 78 1015.8
20260903144614 84 101 2.0 6.0 0.00 0.01 0.00 79 1015.6
20260903143047 83 71 0.0 2.0 0.00 0.01 0.00 86 1015.6
20260903141511 83 116 1.0 4.0 0.00 0.01 0.00 86 1015.7
20260903140052 82 113 2.0 4.0 0.00 0.01 0.00 88 1015.8
20260903134521 81 111 1.0 4.0 0.00 0.01 0.00 89 1015.8
20260903133058 81 101 1.0 6.0 0.00 0.01 0.00 90 1015.8
20260903131514 80 74 0.0 4.0 0.00 0.01 0.00 95 1015.8
20260903130125 78 63 0.0 2.0 0.00 0.01 0.00 96 1015.8
20260903124530 77 78 1.0 2.0 0.00 0.01 0.00 97 1015.7
20260903123100 77 79 0.0 2.0 0.00 0.01 0.00 97 1015.8
20260903121532 76 58 0.0 2.0 0.00 0.01 0.00 97 1015.6
20260903120123 76 58 0.0 2.0 0.00 0.01 0.00 97 1015.5
20260903114534 76 5 0.0 2.0 0.00 0.01 0.00 97 1015.3
20260903113104 76 5 0.0 0.0 0.00 0.01 0.00 97 1015.1
20260903111527 76 98 0.0 0.0 0.00 0.01 0.00 96 1014.9
20260903110056 76 98 0.0 0.0 0.00 0.01 0.00 96 1014.5
20260903104521 75 98 0.0 0.0 0.00 0.01 0.00 96 1014.4
20260903103056 75 98 0.0 0.0 0.00 0.01 0.00 96 1014.4